Location: Unspecified
(42.3650°N, 71.1030°W)
Time: 21:08:29
(UTC+00:00)

Vanguard 2 - Pass Details

Date: 02 July 2024
Orbit: 552 x 2913 km, 32.9° (Epoch: 22 July)

Event Time Altitude Azimuth Distance (km) Brightness Sun altitude
Exits shadow 07:55:45 14° 228° (SW) 3,511 10.2 -11.7°
Maximum altitude 08:04:37 48° 160° (SSE) 2,619 10.0 -10.5°
Drops below altitude 10° 08:19:24 10° 93° (E) 5,524 12.6 -8.6°
Sets 08:24:19 0° 89° (E) 6,689 13.2 -7.9°
